Home > Weather > Barrow > Past weeks

Flag for USA Weather for the Past 2 Weeks in Barrow, Alaska, USA

Now
17 °F

Low clouds.


Feels Like: 8 °F
Forecast: 15 / 19 °F
Wind: 7 mph from East

Location: Post Rogers Memorial Airport

Current Time: May 5, 2016 at 12:12:02 PM

Latest Report: May 5, 2016 at 11:53 AM


Visibility: 10 mi

Pressure: 29.97 "Hg

Humidity: 92%

Dew Point: 15 °F

Location of BarrowLocation

Historic Weather in Barrow — Graph

°F

Barrow Temperature Yesterday

Maximum temperature yesterday: 24 °F (at 12:01 AM)
Minimum temperature yesterday: 20 °F (at 10:53 AM)
Average temperature yesterday: 22 °F

High & Low Weather Summary for the Past Weeks

 TemperatureHumidityPressure
High30 °F (May 1, 3:53 PM)100% (Apr 27, 1:53 AM)30.42 "Hg (Apr 27, 1:53 AM)
Low8 °F (Apr 21, 3:53 AM)78% (Apr 24, 8:53 PM)29.85 "Hg (Apr 30, 11:53 PM)
Average23 °F90%30.00 "Hg
* Reported Apr 20 10:53 AM — May 5 10:53 AM, Barrow, Weather by CustomWeather, © 2016

Note: Actual official high and low records may vary slightly from our data, if they occured in-between our weather recording intervals... More about our weather records

Advertising

Barrow Weather History for the Previous 24 Hours

Scroll right to see more
 ConditionsComfort  
Time TempWeatherWind HumidityBarometerVisibility
10:53 AM
Thu, May 5
17 °FLow clouds.8 mph92%29.96 "Hg10 mi
9:53 AM18 °FLow clouds.9 mph88%29.96 "Hg10 mi
8:53 AM18 °FBroken clouds.8 mph88%29.96 "Hg10 mi
7:53 AM18 °FPartly sunny.8 mph88%29.96 "Hg10 mi
6:53 AM19 °FPartly sunny.7 mph85%29.96 "Hg10 mi
5:53 AM19 °FOvercast.7 mph85%29.96 "Hg10 mi
4:53 AM19 °FOvercast.7 mph85%29.96 "Hg10 mi
3:53 AM18 °FOvercast.8 mph88%29.96 "Hg10 mi
2:53 AM19 °FPassing clouds.7 mph85%29.97 "Hg10 mi
1:53 AM20 °FPartly sunny.7 mph85%29.98 "Hg10 mi
12:53 AM20 °FPartly sunny.9 mph85%29.97 "Hg10 mi
11:53 PM
Wed, May 4
21 °FOvercast.9 mph85%29.98 "Hg10 mi
10:53 PM21 °FOvercast.12 mph85%29.97 "Hg10 mi
9:53 PM21 °FMore clouds than sun.9 mph85%29.97 "Hg10 mi
8:53 PM22 °FMostly cloudy.9 mph82%29.97 "Hg10 mi
7:53 PM22 °FOvercast.9 mph85%29.97 "Hg10 mi
6:53 PM23 °FOvercast.9 mph81%29.97 "Hg10 mi
5:53 PM21 °FLow clouds.8 mph85%29.97 "Hg10 mi
4:53 PM21 °FLow clouds.9 mph85%29.98 "Hg10 mi
3:53 PM21 °FLow clouds.9 mph85%29.98 "Hg10 mi
2:53 PM21 °FLow clouds.10 mph85%29.98 "Hg10 mi
1:53 PM21 °FLow clouds.10 mph88%29.98 "Hg10 mi
12:53 PM21 °FLow clouds.9 mph85%29.97 "Hg10 mi
Weather by CustomWeather, © 2016

See weather overviewHow to use our weather pages